N5VKM Weather Reports


Display with metric or nautical units.
time (UTC)temp
F
wind
direction
speed
MPH
gust
MPH
rain 1hr
in
rain 24hr
in
rain mn
in
humidity
%
barometer
mb
20260506215532 61 332 0.0 0.0 0.00 0.04 0.04 78 1013.9
20260506215042 61 332 0.0 0.0 0.00 0.04 0.04 77 1013.9
20260506214543 61 360 0.0 0.0 0.00 0.04 0.04 77 1013.9
20260506214033 61 333 0.0 0.0 0.00 0.04 0.04 77 1013.8
20260506213600 61 331 0.0 0.0 0.00 0.04 0.04 77 1014.1
20260506213044 61 332 0.0 0.0 0.00 0.04 0.04 77 1014.2
20260506212537 61 334 0.0 0.0 0.00 0.04 0.04 77 1014.2
20260506212047 61 331 0.0 0.0 0.00 0.04 0.04 77 1014.0
20260506211600 60 360 0.0 0.0 0.00 0.04 0.04 77 1013.9
20260506211048 60 331 0.0 0.0 0.00 0.04 0.04 77 1014.0
20260506210543 60 332 0.0 0.0 0.00 0.04 0.04 76 1014.0
20260506210035 61 333 0.0 0.0 0.00 0.04 0.04 76 1014.3
20260506205543 61 333 0.0 0.0 0.00 0.04 0.04 77 1014.3
20260506205035 61 333 0.0 0.0 0.00 0.04 0.04 77 1014.2
20260506204542 60 333 0.0 0.0 0.00 0.04 0.04 78 1014.2
20260506204038 60 333 0.0 0.0 0.00 0.04 0.04 78 1014.4
20260506203546 60 333 0.0 0.0 0.00 0.04 0.04 77 1014.3
20260506203032 60 334 0.0 0.0 0.00 0.04 0.04 78 1014.5
20260506202607 60 339 0.0 0.0 0.00 0.04 0.04 78 1014.6
20260506202033 59 338 0.0 0.0 0.00 0.04 0.04 78 1014.6
20260506201546 59 332 0.0 0.0 0.00 0.04 0.04 79 1014.7
20260506201058 59 332 0.0 0.0 0.00 0.04 0.04 80 1014.7
20260506200545 58 333 0.0 0.0 0.00 0.04 0.04 79 1014.6
20260506200032 58 333 0.0 0.0 0.00 0.04 0.04 79 1014.8
20260506195547 58 332 0.0 0.0 0.00 0.04 0.04 79 1015.0
20260506195037 58 332 0.0 0.0 0.00 0.04 0.04 79 1014.9
20260506194531 58 333 0.0 0.0 0.00 0.04 0.04 79 1014.8
20260506194045 58 333 0.0 0.0 0.00 0.04 0.04 79 1014.8
20260506193537 58 332 0.0 0.0 0.00 0.04 0.04 79 1015.1
20260506193043 58 332 0.0 0.0 0.00 0.04 0.04 79 1014.9
20260506192531 58 360 0.0 0.0 0.00 0.04 0.04 79 1014.7
20260506192045 58 332 0.0 0.0 0.00 0.04 0.04 80 1014.9
20260506191538 58 333 0.0 0.0 0.01 0.04 0.04 79 1015.0
20260506191028 58 333 0.0 0.0 0.01 0.04 0.04 79 1014.7
20260506190540 58 333 0.0 0.0 0.01 0.04 0.04 79 1014.6
20260506190030 58 333 0.0 0.0 0.01 0.04 0.04 80 1014.2
20260506185540 58 333 0.0 0.0 0.01 0.04 0.04 80 1014.2
20260506185034 58 332 0.0 0.0 0.01 0.04 0.04 79 1014.0
20260506184543 58 332 0.0 0.0 0.01 0.04 0.04 81 1013.9
20260506184033 57 339 0.0 0.0 0.01 0.04 0.04 81 1013.7
20260506183544 57 340 0.0 0.0 0.01 0.04 0.04 82 1013.6
20260506183034 57 334 0.0 0.0 0.01 0.04 0.04 82 1013.5
20260506182532 57 360 0.0 0.0 0.01 0.04 0.04 82 1013.8
20260506182040 57 339 0.0 0.0 0.01 0.04 0.04 82 1013.8
20260506181534 57 333 0.0 0.0 0.01 0.03 0.03 83 1013.8
20260506181103 56 333 0.0 0.0 0.01 0.03 0.03 84 1014.0
20260506180533 56 333 0.0 0.0 0.01 0.03 0.03 84 1014.0
20260506180047 56 333 0.0 0.0 0.01 0.03 0.03 84 1013.8
20260506175531 56 333 0.0 0.0 0.01 0.03 0.03 85 1013.7
20260506175039 55 333 0.0 0.0 0.01 0.03 0.03 86 1013.6
20260506174604 55 340 0.0 0.0 0.02 0.03 0.03 86 1013.7
20260506174049 55 333 0.0 0.0 0.02 0.03 0.03 87 1013.6
20260506173539 55 335 0.0 0.0 0.02 0.03 0.03 87 1013.9
20260506173036 54 333 0.0 0.0 0.02 0.03 0.03 87 1014.1
20260506172546 54 334 0.0 0.0 0.02 0.03 0.03 87 1014.0
20260506172100 54 334 0.0 0.0 0.02 0.03 0.03 87 1014.3
20260506171530 54 333 0.0 0.0 0.01 0.02 0.02 88 1014.5
20260506171044 54 333 0.0 0.0 0.01 0.02 0.02 88 1014.8
20260506170537 54 334 0.0 0.0 0.01 0.02 0.02 88 1015.1
20260506170045 54 339 0.0 0.0 0.01 0.02 0.02 88 1015.4
20260506165535 54 333 0.0 0.0 0.01 0.02 0.02 88 1015.7
20260506165043 54 333 0.0 0.0 0.01 0.02 0.02 88 1016.0
20260506164529 54 334 0.0 0.0 0.01 0.01 0.01 88 1016.1
20260506164046 54 333 0.0 0.0 0.01 0.01 0.01 88 1016.0
20260506163540 54 333 0.0 0.0 0.01 0.01 0.01 88 1015.6
20260506163049 54 334 0.0 0.0 0.01 0.01 0.01 88 1015.1
20260506162542 54 333 0.0 0.0 0.01 0.01 0.01 88 1014.4
20260506162035 54 333 0.0 0.0 0.01 0.01 0.01 88 1014.3
20260506161549 54 332 0.0 0.0 0.01 0.01 0.01 88 1014.3
20260506161056 54 334 0.0 0.0 0.01 0.01 0.01 88 1014.4
20260506160547 54 335 0.0 0.0 0.01 0.01 0.01 88 1014.9
20260506160035 53 333 0.0 0.0 0.01 0.01 0.01 87 1015.3
20260506155542 54 340 0.0 0.0 0.01 0.01 0.01 87 1016.3
20260506155035 54 340 0.0 0.0 0.01 0.01 0.01 86 1015.9
20260506154545 54 333 0.0 0.0 0.00 0.00 0.00 86 1015.8
20260506154033 54 335 0.0 0.0 0.00 0.00 0.00 85 1015.5
20260506153542 54 333 0.0 0.0 0.00 0.00 0.00 85 1015.2
20260506153032 54 334 0.0 0.0 0.00 0.00 0.00 84 1015.1
20260506152545 54 333 0.0 0.0 0.00 0.00 0.00 84 1015.2
20260506152031 54 335 0.0 0.0 0.00 0.00 0.00 83 1015.6
20260506151546 54 333 0.0 0.0 0.00 0.00 0.00 83 1015.6
20260506151053 54 334 0.0 0.0 0.00 0.00 0.00 83 1015.1
20260506150538 54 333 0.0 0.0 0.00 0.00 0.00 83 1014.8
20260506150052 54 332 0.0 0.0 0.00 0.00 0.00 82 1014.0
20260506145545 54 332 0.0 0.0 0.00 0.00 0.00 83 1014.9
20260506145033 54 333 0.0 0.0 0.00 0.00 0.00 83 1015.1
20260506144543 54 333 0.0 0.0 0.00 0.00 0.00 83 1015.4
20260506144034 54 333 0.0 0.0 0.00 0.00 0.00 84 1015.1
20260506143542 54 333 0.0 0.0 0.00 0.00 0.00 83 1014.8
20260506143031 54 340 0.0 0.0 0.00 0.00 0.00 84 1014.9
20260506142540 54 332 0.0 0.0 0.00 0.00 0.00 84 1014.9
20260506142030 53 333 0.0 0.0 0.00 0.00 0.00 84 1014.5
20260506141530 53 334 0.0 0.0 0.00 0.00 0.00 84 1014.2
20260506141040 53 340 0.0 0.0 0.00 0.00 0.00 84 1014.4
20260506140527 53 333 0.0 0.0 0.00 0.00 0.00 84 1014.2
20260506140039 53 333 0.0 0.0 0.00 0.00 0.00 84 1014.0
20260506135548 53 333 0.0 0.0 0.00 0.00 0.00 85 1014.0
20260506135040 53 340 0.0 0.0 0.00 0.00 0.00 85 1014.3
20260506134547 53 333 0.0 0.0 0.00 0.00 0.00 85 1014.2
20260506134038 53 360 0.0 0.0 0.00 0.00 0.00 85 1014.1
20260506133546 53 334 0.0 0.0 0.00 0.00 0.00 85 1013.8
20260506133052 53 334 0.0 0.0 0.00 0.00 0.00 85 1013.7
20260506132541 52 333 0.0 0.0 0.00 0.00 0.00 85 1013.8
20260506132036 52 340 0.0 0.0 0.00 0.00 0.00 85 1013.8
20260506131542 52 333 0.0 0.0 0.00 0.00 0.00 85 1013.5
20260506131032 52 335 0.0 0.0 0.00 0.00 0.00 85 1013.4
20260506130546 52 333 0.0 0.0 0.00 0.00 0.00 85 1013.5
20260506130036 52 340 0.0 0.0 0.00 0.00 0.00 85 1013.8
20260506125534 52 340 0.0 0.0 0.00 0.00 0.00 86 1013.5
20260506125041 52 334 0.0 0.0 0.00 0.00 0.00 86 1013.4
20260506124548 52 340 0.0 0.0 0.00 0.00 0.00 86 1013.3
20260506124037 52 360 0.0 0.0 0.00 0.00 0.00 86 1013.3
20260506123527 52 340 0.0 0.0 0.00 0.00 0.00 86 1013.4
20260506123036 52 340 0.0 0.0 0.00 0.00 0.00 87 1013.4
20260506122609 52 333 0.0 0.0 0.00 0.00 0.00 87 1013.2
20260506122042 52 333 0.0 0.0 0.00 0.00 0.00 87 1013.2
20260506121535 52 340 0.0 0.0 0.00 0.00 0.00 87 1013.2
20260506121046 52 336 0.0 0.0 0.00 0.00 0.00 87 1013.2
20260506120533 52 334 0.0 0.0 0.00 0.00 0.00 87 1013.0
20260506120040 52 333 0.0 0.0 0.00 0.00 0.00 87 1013.0
20260506115533 52 333 0.0 0.0 0.00 0.00 0.00 87 1012.8
20260506115033 53 336 0.0 0.0 0.00 0.00 0.00 86 1012.9
20260506114547 53 333 0.0 0.0 0.00 0.00 0.00 86 1012.6
20260506114040 53 333 0.0 0.0 0.00 0.00 0.00 85 1012.5
20260506113531 53 360 0.0 0.0 0.00 0.00 0.00 84 1012.4
20260506113043 53 335 0.0 0.0 0.00 0.00 0.00 84 1012.5
20260506112532 53 334 0.0 0.0 0.00 0.00 0.00 84 1012.5
20260506112046 54 333 0.0 0.0 0.00 0.00 0.00 83 1012.4
20260506111600 54 340 0.0 0.0 0.00 0.00 0.00 83 1012.4
20260506111031 54 333 0.0 0.0 0.00 0.00 0.00 83 1012.2
20260506110542 54 333 0.0 0.0 0.00 0.00 0.00 83 1012.1
20260506110030 54 333 0.0 0.0 0.00 0.00 0.00 82 1012.2
20260506105539 54 360 0.0 0.0 0.00 0.00 0.00 82 1012.2
20260506105030 54 335 0.0 0.0 0.00 0.00 0.00 81 1012.0
20260506104537 54 333 0.0 0.0 0.00 0.00 0.00 81 1011.9
20260506104043 54 333 0.0 0.0 0.00 0.00 0.00 81 1011.8
20260506103550 54 333 0.0 0.0 0.00 0.00 0.00 81 1011.8
20260506103037 54 340 0.0 0.0 0.00 0.00 0.00 80 1011.7
20260506102551 54 340 0.0 0.0 0.00 0.00 0.00 80 1011.5
20260506102037 54 333 0.0 0.0 0.00 0.00 0.00 80 1011.4
20260506101551 54 332 0.0 0.0 0.00 0.00 0.00 79 1011.3
20260506101038 54 340 0.0 0.0 0.00 0.00 0.00 79 1011.2
20260506100529 54 333 0.0 0.0 0.00 0.00 0.00 79 1011.2
20260506100041 54 338 0.0 0.0 0.00 0.00 0.00 79 1011.1
20260506095548 54 360 0.0 0.0 0.00 0.00 0.00 79 1011.1
20260506095034 54 333 0.0 0.0 0.00 0.00 0.00 79 1011.2
20260506094542 54 334 0.0 0.0 0.00 0.00 0.00 79 1011.0
20260506094036 54 360 0.0 0.0 0.00 0.00 0.00 79 1011.0
20260506093549 55 336 0.0 0.0 0.00 0.00 0.00 79 1011.0
20260506093041 55 333 0.0 0.0 0.00 0.00 0.00 79 1011.0
20260506092532 55 333 0.0 0.0 0.00 0.00 0.00 78 1010.9
20260506092040 55 333 0.0 0.0 0.00 0.00 0.00 79 1010.9
20260506091546 55 333 0.0 0.0 0.00 0.00 0.00 79 1010.8
20260506091037 55 360 0.0 0.0 0.00 0.00 0.00 78 1010.5
20260506090548 56 336 0.0 0.0 0.00 0.00 0.00 78 1010.6
20260506090041 56 332 0.0 0.0 0.00 0.00 0.00 78 1010.4
20260506085531 56 360 0.0 0.0 0.00 0.00 0.00 78 1010.5
20260506085039 56 332 0.0 0.0 0.00 0.00 0.00 78 1010.4
20260506084548 56 334 0.0 0.0 0.00 0.00 0.00 78 1010.5
20260506084039 56 333 0.0 0.0 0.00 0.00 0.00 78 1010.5
20260506083546 56 360 0.0 0.0 0.00 0.00 0.00 78 1010.3
20260506083037 56 340 0.0 0.0 0.00 0.00 0.00 77 1010.2
20260506082543 56 340 0.0 0.0 0.00 0.00 0.00 77 1010.4
20260506082039 56 333 0.0 0.0 0.00 0.00 0.00 77 1010.5
20260506081545 56 333 0.0 0.0 0.00 0.00 0.00 77 1010.4
20260506081036 56 332 0.0 0.0 0.00 0.00 0.00 77 1010.1
20260506080530 56 333 0.0 0.0 0.00 0.00 0.00 77 1010.0
20260506073046 57 335 0.0 0.0 0.00 0.00 0.00 78 1009.9
20260506072534 57 332 0.0 0.0 0.00 0.00 0.00 78 1009.9
20260506072027 57 333 0.0 0.0 0.00 0.00 0.00 78 1009.8
20260506071601 57 339 0.0 0.0 0.00 0.00 0.00 78 1010.0
20260506071028 57 333 0.0 0.0 0.00 0.00 0.00 78 1010.0
20260506070539 57 340 0.0 0.0 0.00 0.00 0.00 78 1010.0
20260506062033 57 332 0.0 0.0 0.00 0.00 0.00 79 1010.3
20260506061546 58 332 0.0 0.0 0.00 0.00 0.00 79 1010.2
20260506061037 58 332 0.0 0.0 0.00 0.00 0.00 79 1010.1
20260506060548 58 334 0.0 0.0 0.00 0.00 0.00 79 1010.1
20260506051035 59 333 0.0 0.0 0.00 0.00 0.00 80 1010.1
20260506050542 59 340 0.0 0.0 0.00 0.00 0.00 80 1010.1
20260506045030 60 333 0.0 0.0 0.00 0.00 0.00 80 1010.0
20260506044603 60 334 0.0 0.0 0.00 0.00 0.00 80 1010.0
20260506044035 60 340 0.0 0.0 0.00 0.00 0.00 81 1009.9
20260506043544 60 360 0.0 0.0 0.00 0.00 0.00 80 1009.7
20260506043031 61 339 0.0 0.0 0.00 0.00 0.00 80 1009.9
20260506042604 61 332 0.0 0.0 0.00 0.00 0.00 80 1009.7
20260506042035 61 332 0.0 0.0 0.00 0.00 0.00 80 1009.7
20260506041545 62 332 0.0 0.0 0.00 0.00 0.00 81 1009.6
20260506041053 62 332 0.0 0.0 0.00 0.00 0.00 80 1009.7
20260506040604 62 333 0.0 0.0 0.00 0.00 0.00 80 1009.5
20260506040033 62 339 0.0 0.0 0.00 0.00 0.00 81 1009.5
20260506035543 62 339 0.0 0.0 0.00 0.00 0.00 81 1009.3
20260506035033 63 339 0.0 0.0 0.00 0.00 0.00 81 1009.3
20260506034527 63 338 0.0 0.0 0.00 0.00 0.00 80 1009.5
20260506034057 63 334 0.0 0.0 0.00 0.00 0.00 80 1009.6
20260506033531 63 333 0.0 0.0 0.00 0.00 0.00 80 1009.3
20260506033040 63 332 0.0 0.0 0.00 0.00 0.00 80 1009.4
20260506032547 63 339 0.0 0.0 0.00 0.00 0.00 80 1009.1
20260506032039 63 332 0.0 0.0 0.00 0.00 0.00 80 1009.3
20260506031547 64 331 0.0 0.0 0.00 0.00 0.00 80 1009.0
20260506031104 64 333 0.0 0.0 0.00 0.00 0.00 79 1008.8
20260506030533 64 339 0.0 0.0 0.00 0.00 0.00 79 1008.9
20260506030042 64 333 0.0 0.0 0.00 0.00 0.00 79 1008.7
20260506025533 65 332 0.0 0.0 0.00 0.00 0.00 79 1008.7
20260506025028 65 333 0.0 0.0 0.00 0.00 0.00 79 1008.5
20260506024539 66 339 0.0 0.0 0.00 0.00 0.00 79 1008.3
20260506024047 66 336 0.0 0.0 0.00 0.00 0.00 78 1008.2
20260506023555 67 339 0.0 0.0 0.00 0.00 0.00 79 1007.8
20260506023044 67 332 0.0 0.0 0.00 0.00 0.00 78 1007.7
20260506022605 67 338 0.0 0.0 0.00 0.00 0.00 78 1007.6
20260506022032 68 338 0.0 0.0 0.00 0.00 0.00 78 1007.6
20260506021546 68 334 0.0 0.0 0.00 0.00 0.00 78 1007.4
20260506021038 68 332 0.0 0.0 0.00 0.00 0.00 78 1007.3
20260506020545 68 333 0.0 0.0 0.00 0.00 0.00 78 1007.4
20260506020036 69 338 0.0 0.0 0.00 0.00 0.00 77 1007.3
20260506015547 69 333 0.0 0.0 0.00 0.00 0.00 77 1007.0
20260506015039 69 332 0.0 0.0 0.00 0.00 0.00 77 1006.9
20260506014527 69 333 0.0 0.0 0.00 0.00 0.00 77 1006.8
20260506014039 69 332 0.0 0.0 0.00 0.00 0.00 76 1007.0
20260506013537 69 339 0.0 0.0 0.00 0.00 0.00 76 1007.0
20260506013045 70 334 0.0 0.0 0.00 0.00 0.00 76 1006.6
20260506012558 70 331 0.0 0.0 0.00 0.00 0.00 75 1006.6
20260506012043 71 331 0.0 0.0 0.00 0.00 0.00 76 1006.3
20260506011531 71 339 0.0 0.0 0.00 0.00 0.00 76 1006.5
20260506011043 72 338 0.0 0.0 0.00 0.00 0.00 75 1006.9
20260506010551 73 333 0.0 0.0 0.00 0.00 0.00 75 1005.7
20260506010039 73 338 0.0 0.0 0.00 0.00 0.00 75 1005.7
20260506005549 73 338 0.0 0.0 0.00 0.00 0.00 75 1006.1
20260506005059 74 331 0.0 0.0 0.00 0.00 0.00 74 1005.8
20260506004544 74 332 0.0 0.0 0.00 0.00 0.00 74 1005.6
20260506004041 74 331 0.0 0.0 0.00 0.00 0.00 73 1005.8
20260506003534 74 331 0.0 0.0 0.00 0.00 0.00 72 1005.8
20260506003042 74 331 0.0 0.0 0.00 0.00 0.00 72 1005.8
20260506002530 74 338 0.0 0.0 0.00 0.00 0.00 72 1005.7
20260506002041 74 338 0.0 0.0 0.00 0.00 0.00 71 1005.9
20260506001531 75 331 0.0 0.0 0.00 0.00 0.00 70 1005.6
20260506001040 75 337 0.0 0.0 0.00 0.00 0.00 70 1005.6
20260506000546 75 336 0.0 0.0 0.00 0.00 0.00 70 1005.7
20260506000035 76 337 0.0 0.0 0.00 0.00 0.00 71 1005.6
20260505235549 76 338 0.0 0.0 0.00 0.00 0.00 70 1005.6
20260505235042 76 337 0.0 0.0 0.00 0.00 0.00 70 1005.3
20260505234548 76 338 0.0 0.0 0.00 0.00 0.00 69 1005.1
20260505234041 77 338 0.0 0.0 0.00 0.00 0.00 69 1005.0
20260505233528 77 337 0.0 0.0 0.00 0.00 0.00 67 1005.0
20260505233039 79 338 0.0 0.0 0.00 0.00 0.00 66 1005.0
20260505232609 80 337 0.0 0.0 0.00 0.00 0.00 64 1005.2
20260505232037 80 337 0.0 0.0 0.00 0.00 0.00 64 1005.0
20260505231531 80 337 0.0 0.0 0.00 0.00 0.00 63 1004.8
20260505231058 81 337 0.0 0.0 0.00 0.00 0.00 62 1004.8
20260505230528 82 337 0.0 0.0 0.00 0.00 0.00 60 1004.5
20260505230038 83 336 0.0 0.0 0.00 0.00 0.00 58 1004.3
20260505225532 84 337 0.0 0.0 0.00 0.00 0.00 57 1004.2
20260505225046 84 336 0.0 0.0 0.00 0.00 0.00 55 1004.3
20260505224543 84 336 0.0 0.0 0.00 0.00 0.00 55 1004.3
20260505224049 84 337 0.0 0.0 0.00 0.00 0.00 54 1004.2
20260505223536 85 337 0.0 0.0 0.00 0.00 0.00 54 1004.1
20260505223027 85 336 0.0 0.0 0.00 0.00 0.00 53 1004.1
20260505222539 86 336 0.0 0.0 0.00 0.00 0.00 52 1004.0
20260505222046 86 336 0.0 0.0 0.00 0.00 0.00 52 1003.8
20260505221537 87 337 0.0 0.0 0.00 0.00 0.00 52 1003.7
20260505221028 87 336 0.0 0.0 0.00 0.00 0.00 53 1003.7
20260505220558 87 336 0.0 0.0 0.00 0.00 0.00 54 1003.8
20260505220035 87 334 0.0 0.0 0.00 0.00 0.00 58 1003.7